EET,Max TemperatureF,Mean TemperatureF,Min TemperatureF,Max Dew PointF,MeanDew PointF,Min DewpointF,Max Humidity, Mean Humidity, Min Humidity, Max Sea Level PressureIn, Mean Sea Level PressureIn, Min Sea Level PressureIn, Max VisibilityMiles, Mean VisibilityMiles, Min VisibilityMiles, Max Wind SpeedMPH, Mean Wind SpeedMPH, Max Gust SpeedMPH,PrecipitationIn, CloudCover, Events, WindDirDegrees
2013-12-1,75,68,60,62,59,57,94,79,48,30.01,29.98,29.94,4,4,2,9,5,,0.00,,,96
2013-12-2,87,74,61,68,63,57,94,68,36,30.04,29.95,29.92,6,4,4,6,2,,0.00,2,,134
2013-12-3,76,72,68,68,64,57,94,76,61,29.98,29.91,29.89,6,6,4,13,8,,0.00,3,,286
2013-12-4,76,68,60,59,56,52,88,64,44,29.98,29.94,29.92,6,6,6,18,11,,0.12,3,Rain,294
2013-12-5,68,64,59,57,55,52,88,70,51,30.01,29.94,29.89,6,6,6,18,13,,0.00,5,Rain,290
2013-12-6,68,61,53,57,55,52,100,80,60,30.05,30.02,29.98,6,6,6,7,5,,0.00,3,,238
2013-12-7,70,60,51,56,53,50,100,75,46,30.12,30.06,29.98,6,6,6,12,4,,0.00,3,,244
2013-12-8,70,62,53,59,53,48,94,71,53,30.25,30.15,30.06,6,6,6,16,8,,0.00,2,,311
2013-12-9,66,62,57,48,46,45,67,53,36,30.31,30.25,30.21,6,6,6,14,12,,0.00,3,,336
2013-12-10,68,62,57,55,47,43,88,59,38,30.24,30.12,29.98,6,6,6,15,8,,0.28,3,Rain,307
2013-12-11,61,56,50,57,44,32,94,60,32,29.99,29.93,29.89,6,6,6,28,17,,0.12,3,Rain,313
2013-12-12,55,49,43,43,40,32,93,66,44,30.01,29.96,29.92,6,6,4,25,18,,0.35,4,Rain,322
2013-12-13,52,46,39,45,41,37,93,74,57,30.09,29.97,29.89,6,6,4,25,14,,0.39,3,Rain-Thunderstorm,315
2013-12-14,60,51,42,48,42,37,72,60,49,30.35,30.18,30.06,6,6,4,16,12,,0.00,3,,331
2013-12-15,62,52,43,45,43,40,87,64,34,30.43,30.36,30.09,6,6,6,5,2,,0.00,3,,12
2013-12-16,65,54,43,50,46,42,93,77,46,30.36,30.29,30.24,6,6,2,7,2,,0.00,3,,215
2013-12-17,63,54,46,52,49,44,93,81,59,30.21,30.15,30.09,6,6,6,12,4,,0.00,4,,196
2013-12-18,65,57,49,50,49,46,100,79,48,30.14,30.10,30.06,6,6,2,7,3,,0.00,3,,139
2013-12-19,66,56,46,55,49,45,100,81,54,30.22,30.15,29.82,6,5,2,9,2,,0.00,3,,257
2013-12-20,65,56,47,54,51,46,95,81,54,30.34,30.27,30.21,6,6,4,9,2,,0.00,3,,344
2013-12-21,68,58,47,55,52,45,100,78,51,30.39,30.34,30.30,6,6,4,10,4,,0.00,2,,39
2013-12-22,67,60,53,54,51,50,88,69,43,30.36,30.32,30.27,6,6,6,14,6,,0.00,2,,39
2013-12-23,68,58,49,55,52,46,94,76,53,30.30,30.26,30.21,6,6,6,12,4,,0.00,1,,65
2013-12-24,68,60,51,54,48,43,94,69,31,30.24,30.19,30.09,6,4,2,8,5,,0.00,,,84
2013-12-25,73,58,43,50,44,37,88,66,18,30.13,30.07,30.04,6,5,4,6,2,,0.00,,,126
2013-12-26,69,60,50,57,52,48,96,78,47,30.09,30.05,30.01,6,6,6,12,5,,0.00,2,,231
2013-12-27,68,56,43,56,51,44,100,83,46,30.09,30.03,29.98,6,4,1,6,2,,0.00,,,138
2013-12-28,65,56,47,54,47,41,100,77,40,29.95,29.91,29.89,6,4,0,21,5,,0.00,3,Fog,215
2013-12-29,65,53,41,52,43,36,88,69,34,29.98,29.94,29.92,6,6,6,18,6,,0.00,2,,198
2013-12-30,66,60,53,57,53,50,100,80,64,30.01,29.96,29.92,6,6,4,14,7,,0.04,3,Rain,298
2013-12-31,66,58,51,57,53,50,100,84,68,30.09,30.04,30.01,6,6,6,12,4,,0.00,3,,309